Wind_Speed
8 8 9 9 9 9 10 10 10 9 9 9 8 7 6 6 5 5 4 3 4 3 3 2 2 2 3 2 2 1 1 2 3 4 3 3 2 2 2 3 4 4 5
8 8 9 8 9 9 9 10 9 9 8 8 8 7 6 6 5 5 4 3 3 3 2 2 2 3 2 2 2 1 1 2 3 3 3 3 3 3 2 2 3 3 4
8 7 7 8 7 7 8 9 8 8 7 7 7 7 6 5 4 4 4 3 2 2 2 1 2 2 1 2 2 2 2 3 4 4 3 3 3 2 2 2 2 3 3
7 6 5 5 6 6 7 7 7 7 7 6 6 6 5 4 4 3 3 3 2 2 2 2 2 2 1 1 2 2 3 3 3 4 4 4 3 3 3 3 3 3 4
6 6 4 4 5 5 7 7 7 6 6 6 6 5 4 4 3 3 2 2 1 1 1 1 1 1 1 2 2 3 3 4 4 4 4 4 3 4 3 3 3 3 5
6 5 4 3 4 5 6 7 6 5 5 5 5 5 4 4 3 2 2 1 1 1 1 2 2 2 3 2 3 4 4 4 4 4 4 4 4 4 4 4 4 4 6
5 4 4 4 4 5 5 5 4 4 4 4 5 4 4 4 3 2 2 2 2 1 3 4 4 4 4 4 4 4 4 5 5 4 4 5 5 4 4 4 5 6 6
4 4 4 4 4 5 5 5 4 4 3 3 4 4 4 4 4 3 3 3 3 4 5 5 5 6 5 5 5 4 5 5 5 5 5 6 6 6 5 5 5 6 7
4 3 4 5 5 6 5 6 5 5 4 3 4 4 4 4 4 3 4 4 5 5 6 6 6 6 6 5 5 5 6 6 6 6 6 7 7 7 6 5 6 6 7
6 5 6 6 6 6 6 7 6 6 6 4 4 5 5 4 4 4 5 5 6 6 6 7 7 6 6 6 6 6 7 7 7 7 7 8 8 8 7 7 8 8 9
7 7 8 7 7 7 7 7 7 7 6 5 5 6 6 6 6 5 5 6 7 7 6 6 6 6 6 7 7 7 8 8 8 8 8 8 8 8 8 8 9 9 10
10 10 9 8 8 9 8 8 8 8 8 8 7 7 7 7 7 7 7 7 7 7 6 6 7 7 8 9 9 9 9 9 9 9 9 9 9 9 9 10 11 11 11
12 12 11 11 10 10 10 10 10 10 9 9 9 9 9 9 9 9 9 8 8 7 6 6 7 8 9 10 10 10 9 9 10 10 10 10 10 11 11 11 12 12 13
14 14 13 13 12 12 12 12 11 11 11 11 10 10 11 11 11 11 10 9 8 8 8 8 9 9 9 10 10 10 10 11 11 12 12 12 12 12 12 13 13 13 14
17 16 15 15 15 14 13 13 13 12 12 12 12 13 12 11 11 11 10 10 10 10 9 9 10 10 10 11 11 11 12 12 13 13 13 14 14 14 14 15 15 15 15
19 18 17 16 16 16 16 15 15 15 14 14 14 14 14 13 12 13 12 12 12 11 11 11 11 11 11 12 13 13 13 14 14 15 15 15 15 16 15 15 16 16 17
22 21 19 18 19 18 18 18 18 17 16 16 15 15 15 15 15 14 14 14 14 13 13 13 13 13 13 13 14 15 15 16 17 16 16 16 17 16 16 16 17 17 18
24 23 22 21 21 21 21 21 21 19 18 18 17 17 17 17 17 17 16 16 16 16 15 14 15 15 15 16 17 17 18 18 18 18 18 18 18 19 18 19 18 18 18
26 25 24 24 24 24 23 23 22 21 20 19 18 19 19 18 18 18 18 18 18 18 17 17 16 17 17 17 18 18 19 19 19 19 20 20 20 20 20 20 20 19 20
28 28 27 26 26 26 25 24 23 23 21 20 20 20 20 19 19 19 19 19 19 19 19 18 17 17 17 18 18 19 19 19 19 19 20 21 21 21 21 21 20 20 20
31 30 29 29 28 28 28 26 25 24 23 23 22 21 21 21 21 21 21 21 20 20 20 19 19 19 19 19 19 20 20 20 20 20 21 21 21 21 21 22 21 21 21
32 32 31 30 30 30 30 29 28 26 24 24 24 23 23 23 23 23 23 23 22 21 21 21 21 21 21 21 20 21 22 23 22 22 22 21 22 21 22 22 22 23 23
34 33 32 32 31 31 31 30 30 28 27 27 26 26 26 25 25 25 25 25 24 23 23 22 22 21 21 21 22 21 22 23 23 23 22 22 23 23 24 24 24 25 25
35 34 34 33 32 32 32 31 30 30 29 29 28 28 28 28 27 27 27 26 25 25 24 23 22 23 23 23 23 24 24 24 24 25 24 24 25 26 26 26 27 27 27
36 36 35 34 33 33 32 31 31 30 30 30 30 30 30 28 28 28 28 28 28 27 27 26 25 25 25 25 26 26 26 26 26 27 27 27 27 28 28 28 29 30 30
36 36 35 34 34 33 33 32 31 31 32 31 30 31 31 31 30 28 28 28 28 27 27 28 27 27 27 27 28 29 29 29 29 29 29 29 30 31 30 30 31 31 32
Wind_Direction
43 47 44 44 44 46 44 43 50 54 59 66 69 70 77 81 89 88 81 80 100 110 106 96 70 63 57 58 43 36 356 339 343 337 325 304 295 296 307 305 303 297 291
39 41 43 43 43 45 43 44 50 53 57 64 67 69 72 71 74 78 72 73 88 103 106 80 76 75 57 48 45 30 19 355 345 349 345 321 298 293 303 309 316 306 300
27 34 36 37 39 41 40 43 45 50 55 59 61 61 65 68 68 65 61 69 84 89 90 82 60 51 23 24 19 5 3 357 347 341 338 325 306 308 303 308 308 302 301
22 23 29 35 36 37 37 40 41 45 45 44 50 51 53 52 54 56 61 70 81 91 79 57 33 7 353 355 351 351 354 343 329 320 321 318 318 321 326 309 304 303 304
23 23 27 32 32 32 29 32 35 39 36 31 32 34 33 29 29 33 42 52 63 53 57 29 7 338 325 332 329 335 331 331 331 323 321 324 325 325 320 322 324 317 319
18 20 17 24 26 24 21 22 27 30 28 21 20 20 13 9 6 3 15 11 6 357 343 309 310 306 304 314 319 321 326 334 335 333 329 326 322 314 309 312 319 319 317
13 12 9 9 5 6 7 8 14 16 16 13 13 12 3 357 351 338 342 339 323 294 289 287 291 298 295 297 307 311 320 326 332 330 322 316 316 312 301 300 304 306 312
5 17 9 360 351 346 345 349 350 350 350 346 345 348 350 352 347 330 311 307 301 294 286 294 297 292 285 286 293 295 302 312 317 317 315 313 312 312 308 306 308 307 306
347 360 356 345 343 336 330 330 347 337 327 321 321 320 323 331 330 318 310 306 305 302 300 296 295 290 290 287 288 293 302 305 307 309 308 305 305 309 304 303 307 308 309
327 326 328 327 333 324 320 318 322 318 316 299 299 304 304 305 300 300 302 299 300 296 297 289 285 288 289 287 287 292 298 299 300 301 300 301 304 304 304 301 302 302 303
314 316 315 318 324 327 317 314 312 315 309 299 295 301 300 296 295 296 298 298 296 288 284 284 286 290 291 289 287 288 291 296 297 295 295 297 302 303 301 297 300 303 303
301 303 307 309 314 318 320 313 306 308 302 293 295 297 296 294 291 292 293 290 290 285 280 282 282 286 286 286 287 287 286 291 294 292 291 294 297 298 298 297 297 300 301
294 297 296 299 303 308 312 313 308 304 298 292 291 293 291 289 286 288 289 288 288 291 283 281 281 283 281 284 288 289 289 291 294 291 288 291 294 293 295 295 296 297 298
290 291 289 288 293 297 302 305 305 303 297 290 283 289 290 286 283 284 284 284 287 292 287 285 286 286 283 285 288 290 289 289 293 294 291 290 288 289 291 294 294 297 297
287 290 290 286 288 292 295 297 297 296 297 296 288 288 289 283 281 282 284 287 288 291 291 287 287 286 284 283 285 287 286 288 290 293 294 292 289 289 291 292 293 296 296
283 285 287 285 286 289 291 292 291 290 290 292 293 289 288 284 282 283 282 283 284 288 288 286 286 286 286 285 286 288 290 291 291 292 293 292 290 289 289 289 291 293 293
278 280 282 282 286 286 286 288 289 289 286 287 286 286 287 283 278 279 280 281 280 282 284 285 286 288 286 286 288 291 290 292 292 291 291 293 293 291 289 288 291 291 292
274 277 279 279 281 283 284 285 287 288 287 284 284 283 283 282 281 277 276 277 279 279 281 281 284 286 286 286 287 290 293 293 292 293 293 292 292 292 291 291 293 293 294
269 271 273 274 276 279 282 282 282 285 286 284 283 283 282 281 281 277 277 277 277 278 280 280 280 283 285 286 287 289 292 293 293 294 294 294 293 291 290 290 291 293 294
267 268 269 269 272 275 278 279 278 279 280 280 279 278 280 279 278 277 277 278 279 279 278 278 279 281 284 287 290 293 296 297 296 295 296 295 294 293 291 290 292 294 295
265 266 267 267 269 270 272 274 275 274 275 275 275 276 278 278 277 276 277 278 279 279 279 280 281 281 282 285 289 292 294 296 297 296 296 296 295 293 291 291 292 293 293
264 264 265 265 266 267 268 270 271 271 271 271 272 274 274 275 275 275 277 277 276 275 277 277 279 281 280 281 285 289 292 292 293 296 296 296 295 293 293 293 294 294 293
262 262 262 262 263 265 266 266 267 268 269 270 272 273 274 275 275 275 275 275 272 272 273 275 277 278 281 281 282 286 290 293 294 296 296 296 296 295 295 295 295 295 295
261 259 259 260 261 263 265 263 264 265 266 268 269 271 274 276 276 275 275 275 273 272 272 274 275 276 278 281 283 286 288 292 293 293 292 293 294 295 294 294 296 297 297
259 258 258 257 257 260 261 260 261 263 264 266 267 269 272 274 274 275 275 274 273 273 273 272 274 276 277 281 283 285 286 288 291 291 289 289 293 294 294 294 294 295 295
257 257 257 256 257 258 259 259 261 262 264 266 267 269 271 273 276 274 275 274 276 275 273 272 273 275 277 279 282 283 284 285 288 289 290 292 291 292 293 293 294 294 294
Height
5897 5896 5894 5893 5892 5891 5889 5888 5886 5884 5884 5883 5882 5882 5882 5882 5882 5882 5882 5882 5882 5882 5882 5882 5883 5883 5882 5882 5882 5882 5882 5882 5881 5881 5880 5880 5879 5879 5879 5878 5878 5878 5878
5898 5897 5896 5895 5894 5892 5891 5889 5888 5887 5886 5885 5884 5884 5884 5883 5883 5883 5883 5883 5883 5883 5883 5883 5883 5883 5883 5882 5882 5882 5882 5882 5881 5880 5880 5879 5879 5878 5878 5878 5877 5877 5877
5899 5898 5897 5896 5895 5894 5892 5891 5890 5888 5888 5887 5886 5885 5885 5884 5884 5884 5884 5883 5883 5883 5883 5883 5883 5883 5883 5883 5882 5882 5882 5882 5881 5880 5879 5879 5878 5878 5878 5877 5877 5876 5876
5900 5899 5898 5897 5896 5895 5894 5892 5891 5890 5889 5888 5887 5887 5886 5885 5885 5885 5884 5884 5884 5884 5884 5884 5883 5883 5883 5882 5882 5882 5881 5881 5880 5879 5879 5879 5878 5877 5877 5877 5876 5875 5874
5900 5900 5899 5898 5897 5896 5894 5893 5892 5891 5890 5889 5888 5887 5886 5886 5885 5885 5884 5884 5884 5884 5883 5883 5883 5883 5882 5882 5882 5881 5881 5880 5880 5879 5878 5878 5877 5877 5876 5876 5875 5875 5874
5901 5900 5899 5899 5897 5896 5895 5893 5892 5891 5890 5889 5888 5887 5887 5886 5885 5885 5884 5884 5884 5884 5883 5883 5883 5882 5882 5881 5881 5880 5880 5880 5879 5879 5878 5877 5877 5876 5875 5875 5874 5873 5873
5901 5900 5899 5898 5897 5896 5895 5893 5892 5891 5890 5889 5888 5888 5887 5886 5885 5884 5884 5884 5884 5883 5883 5883 5882 5882 5881 5881 5880 5880 5880 5879 5878 5878 5877 5876 5876 5875 5874 5874 5873 5872 5871
5901 5900 5899 5898 5897 5896 5895 5893 5892 5891 5890 5889 5888 5887 5887 5886 5885 5884 5884 5883 5883 5883 5882 5882 5881 5881 5880 5880 5879 5879 5878 5878 5877 5876 5876 5875 5874 5873 5873 5872 5871 5870 5870
5901 5900 5899 5898 5897 5895 5894 5893 5892 5891 5890 5888 5888 5887 5886 5885 5885 5884 5883 5883 5882 5881 5881 5880 5880 5879 5879 5878 5878 5877 5877 5876 5875 5875 5874 5873 5873 5872 5871 5870 5869 5869 5868
5901 5900 5898 5897 5896 5895 5894 5892 5891 5890 5889 5888 5887 5886 5885 5885 5884 5883 5882 5881 5881 5880 5880 5879 5879 5878 5877 5877 5876 5876 5875 5875 5874 5873 5872 5872 5871 5870 5869 5869 5868 5867 5866
5900 5899 5897 5896 5895 5894 5892 5891 5890 5889 5887 5886 5886 5885 5885 5884 5883 5882 5881 5880 5879 5879 5878 5878 5877 5877 5876 5876 5875 5874 5874 5873 5872 5871 5870 5870 5869 5868 5867 5866 5865 5864 5863
5899 5897 5896 5895 5893 5892 5891 5890 5889 5887 5886 5885 5884 5884 5883 5882 5882 5881 5880 5879 5878 5877 5876 5876 5876 5875 5874 5874 5873 5872 5872 5871 5870 5869 5868 5867 5867 5866 5865 5864 5863 5862 5861
5897 5895 5894 5893 5892 5891 5889 5888 5887 5886 5884 5883 5882 5882 5881 5880 5880 5879 5878 5877 5876 5875 5874 5874 5873 5873 5872 5872 5871 5870 5869 5869 5868 5867 5866 5865 5864 5863 5862 5861 5860 5859 5858
5894 5892 5891 5891 5890 5889 5887 5886 5885 5883 5882 5881 5880 5880 5879 5878 5877 5876 5875 5875 5874 5873 5872 5872 5871 5871 5870 5869 5868 5868 5867 5866 5865 5864 5863 5862 5861 5860 5859 5858 5857 5855 5854
5890 5889 5888 5887 5886 5885 5885 5883 5882 5881 5880 5879 5877 5877 5876 5875 5875 5874 5873 5872 5871 5871 5870 5869 5869 5868 5867 5866 5865 5865 5864 5863 5862 5861 5859 5858 5857 5856 5855 5854 5853 5851 5850
5886 5885 5884 5883 5883 5882 5881 5880 5879 5878 5877 5876 5874 5873 5873 5872 5871 5871 5870 5869 5869 5868 5867 5867 5866 5865 5864 5863 5862 5861 5860 5859 5858 5857 5856 5854 5853 5852 5851 5850 5848 5847 5846
5880 5880 5879 5879 5878 5877 5877 5876 5875 5874 5873 5872 5871 5870 5869 5868 5867 5867 5867 5866 5865 5865 5864 5863 5862 5861 5860 5859 5858 5857 5856 5855 5854 5852 5851 5850 5849 5847 5846 5845 5843 5842 5840
5874 5874 5874 5873 5873 5872 5872 5871 5870 5869 5868 5868 5867 5866 5865 5864 5864 5863 5863 5862 5862 5861 5860 5859 5858 5857 5856 5855 5854 5852 5851 5851 5849 5848 5846 5845 5844 5842 5841 5839 5838 5837 5835
5868 5868 5868 5868 5867 5866 5866 5865 5865 5864 5863 5862 5862 5861 5860 5859 5858 5858 5858 5857 5857 5856 5855 5854 5854 5853 5852 5851 5849 5848 5847 5845 5844 5843 5841 5840 5838 5837 5835 5834 5833 5831 5830
5859 5860 5860 5860 5860 5860 5859 5859 5858 5858 5857 5856 5856 5855 5855 5854 5854 5853 5853 5852 5852 5851 5850 5849 5849 5848 5847 5846 5845 5843 5842 5841 5839 5837 5836 5834 5833 5831 5829 5828 5827 5826 5824
5851 5851 5852 5852 5852 5852 5852 5852 5851 5851 5850 5850 5849 5849 5848 5848 5847 5847 5847 5846 5846 5845 5844 5844 5843 5843 5842 5841 5840 5838 5837 5836 5834 5832 5830 5829 5827 5825 5824 5822 5821 5820 5818
5841 5842 5843 5843 5843 5843 5843 5843 5843 5843 5843 5843 5842 5842 5841 5841 5841 5840 5840 5840 5839 5838 5838 5838 5837 5836 5836 5835 5834 5833 5831 5830 5828 5827 5825 5823 5821 5819 5817 5816 5815 5813 5811
5832 5832 5833 5834 5835 5834 5834 5834 5835 5835 5835 5835 5835 5834 5833 5833 5833 5833 5833 5832 5832 5831 5831 5831 5830 5830 5829 5828 5827 5826 5825 5823 5822 5820 5819 5817 5815 5813 5811 5810 5808 5807 5805
5821 5822 5823 5824 5825 5825 5825 5825 5826 5826 5827 5827 5827 5826 5826 5825 5825 5825 5825 5825 5824 5824 5824 5823 5823 5823 5822 5821 5820 5819 5818 5817 5815 5814 5812 5810 5808 5807 5805 5803 5802 5800 5798
5810 5811 5813 5814 5815 5816 5816 5816 5817 5817 5818 5818 5818 5818 5818 5816 5816 5817 5817 5816 5816 5815 5816 5816 5815 5815 5815 5814 5813 5812 5811 5809 5808 5806 5805 5803 5802 5800 5798 5796 5794 5792 5790
5800 5801 5802 5804 5805 5806 5807 5807 5808 5808 5809 5809 5809 5809 5809 5809 5808 5808 5808 5807 5806 5806 5806 5806 5806 5806 5806 5805 5804 5803 5803 5801 5800 5798 5797 5795 5793 5792 5790 5788 5786 5784 5782